Regional Weather Roundup
Issued by NWS

Home | Current Version | Previous Version | Text Only | Print | Product List | Glossary On
Versions: 1 2 3 4 5 6 7 8 9 10 11 12 13 14 15 16 17 18 19 20 21 22 23 24 25 26 27 28 29 30 31 32 33 34 35 36 37 38 39 40 41 42 43 44 45 46 47 48 49 50
000
ASUS43 KDTX 180410
RWRMI
MICHIGAN HOURLY REGIONAL WEATHER ROUNDUP
NATIONAL WEATHER SERVICE DETROIT/PONTIAC MI
1200 AM EDT THU SEP 18 2014

NOTE: "FAIR" INDICATES FEW OR NO CLOUDS BELOW 12,000 FEET WITH NO
SIGNIFICANT WEATHER AND/OR OBSTRUCTION TO VISIBILITY.

MIZ047>049-052>055-059>063-066>070-074>076-081>083-180500-
SOUTHEAST LOWER MICHIGAN

CITY           SKY/WX    TMP DP  RH WIND       PRES   REMARKS
ADRIAN         CLEAR     47  45  93 N3        30.03R
ALMA           CLEAR     46  45  95 CALM      30.03R
ANN ARBOR      CLEAR     44  42  93 CALM      30.02R FOG
BAD AXE        CLEAR     44  44 100 CALM      30.00S
DETROIT CITY   CLEAR     56  46  69 CALM      30.02R
DETROIT        PTCLDY    55  46  71 CALM      30.02R
FLINT          CLEAR     49  45  86 CALM      30.03R
GROSSE ILE     CLEAR     54  48  82 CALM      30.00S
HILLSDALE      CLEAR     47  46  98 CALM      30.03S
HOWELL         CLEAR     48  46  94 CALM      30.03R

CITY           SKY/WX    TMP DP  RH WIND       PRES   REMARKS
JACKSON        CLEAR     46  44  93 CALM      30.04R
LAMBERTVILLE   CLEAR     48  46  93 CALM      30.02S
LANSING        CLEAR     49  46  90 CALM      30.04R
LAPEER         NOT AVBL
MASON          CLEAR     47  46  95 CALM      30.04R FOG
MONROE         CLEAR     46  46 100 CALM      30.00S
MT. CLEMENS    CLEAR     50  45  82 NW1       30.00R
PONTIAC        CLEAR     51  47  86 CALM      30.02R
PORT HOPE        N/A     58  53  84 VRB3      29.99R
PORT HURON     FOG       43  43 100 CALM      30.01R VSB 1
TRI CITIES     CLEAR     52  46  80 W5        30.03R
YPSILANTI      MOCLDY    56  45  66 CALM      30.03R
$$
MIZ043>046-050>051-056>058-064>065-071>073-077>080-180500-
SOUTHWEST LOWER MICHIGAN

CITY           SKY/WX    TMP DP  RH WIND       PRES   REMARKS
BATTLE CREEK   CLEAR     49  45  86 CALM      30.04R
BENTON HARBOR  CLEAR     45  44  97 CALM      30.03S
BIG RAPIDS     CLEAR     46  45  99 CALM      30.02S
COLDWATER      CLEAR     48  47  96 CALM      30.03S
HOLLAND        CLEAR     48  45  89 CALM      30.04R
GRAND RAPIDS   CLEAR     49  45  86 SE3       30.04R
KALAMAZOO      CLEAR     46  44  93 CALM      30.04R
MARSHALL         N/A     44  43  95 CALM      30.03S
MUSKEGON       CLEAR     50  46  86 MISG      30.04R
$$
MIZ016>042-180500-
NORTHERN LOWER MICHIGAN

CITY           SKY/WX    TMP DP  RH WIND       PRES   REMARKS
ALPENA         CLOUDY    51  47  86 N9        30.04R
BEAVER ISLAND  CLOUDY    47  41  78 N7        30.09R
BELLAIRE       LGT RAIN  53  46  77 N6        30.05R
CADILLAC       CLEAR     47  47 100 N3        30.04R
CHARLEVOIX     CLOUDY    52  45  78 N10       30.09S
FRANKFORT      MOCLDY    56  47  73 NE10      30.05R
GAYLORD        CLOUDY    49  45  86 NE8       30.04S
GRAYLING       CLEAR     44  44 100 CALM      30.04S FOG
HARBOR SPRINGS CLOUDY    50  43  78 N6        30.06S
HOUGHTON LAKE  CLEAR     50  47  89 N8        30.03R
MANISTEE       CLOUDY    54  48  82 E3        30.04R
OSCODA         CLEAR     52  49  91 N5        30.01R
PELLSTON       CLOUDY    47  44  90 N6        30.07R
TRAVERSE CITY  CLOUDY    55  46  71 N7        30.05R
$$
MIZ007>008-015-180500-
EASTERN UPPER MICHIGAN

CITY           SKY/WX    TMP DP  RH WIND       PRES   REMARKS
KINROSS        CLOUDY    43  39  87 NE10      30.09R
MACKINAC ISLAN CLOUDY    47  40  78 NE12G17   30.07R
NEWBERRY       CLOUDY    42  37  82 N10G16    30.09R
S. S. MARIE    CLOUDY    43  35  73 NE8       30.09R
$$
MIZ004>006-011>014-085-180500-
CENTRAL UPPER MICHIGAN

CITY           SKY/WX    TMP DP  RH WIND       PRES   REMARKS
MANISTIQUE     CLOUDY    39  36  90 NW6       30.11R
ESCANABA       CLOUDY    45  36  70 N7        30.12R
MENOMINEE      CLOUDY    46  39  76 NE10      30.10R
SAWYER-GWINN   CLOUDY    40  35  80 N8        30.11S
$$
MIZ001>003-009>011-084-180500-
WESTERN UPPER MICHIGAN

CITY           SKY/WX    TMP DP  RH WIND       PRES   REMARKS
IRON MOUNTAIN  CLOUDY    44  38  79 N9        30.10R
HOUGHTON       CLEAR     34  30  85 NE6       30.15R
COPPER HARBOR    N/A     44  34  67 E9        30.16R
IRONWOOD       CLOUDY    43  41  93 NE7       30.10S
$$

ABBREVIATIONS USED IN REMARKS
   TC - TEMPERATURE IN CELSIUS
  WCI - WIND CHILL INDEX
   HX - HEAT INDEX
  VSB - VISIBILITY



USA.gov is the U.S. government's official web portal to all federal, state and local government web resources and services.